K3TLB-13 Weather Reports


time (UTC)temp
F
wind
direction
speed
knots
gust
knots
rain 1hr
in
rain 24hr
in
rain mn
in
humidity
%
barometer
mb
20260505114402 59 188 3.5 7.8 0.00 0.01 0.00 70 1011.5
20260505113902 59 170 3.5 9.6 0.00 0.01 0.00 71 1011.4
20260505113403 59 123 2.6 7.8 0.00 0.01 0.00 71 1011.3
20260505112905 58 140 1.7 7.8 0.00 0.01 0.00 72 1011.2
20260505112402 58 161 1.7 6.1 0.00 0.01 0.00 72 1011.2
20260505111902 58 123 3.5 6.1 0.00 0.01 0.00 72 1011.1
20260505111402 58 130 3.5 7.0 0.00 0.01 0.00 72 1011.0
20260505110903 58 116 3.5 7.8 0.00 0.01 0.00 72 1011.0
20260505110402 58 145 2.6 7.8 0.00 0.01 0.00 72 1010.8
20260505101902 57 140 2.6 8.7 0.00 0.01 0.00 73 1010.3
20260505101402 57 159 2.6 7.0 0.00 0.01 0.00 73 1010.4
20260505100902 57 82 1.7 6.1 0.00 0.01 0.00 73 1010.5
20260505100402 57 199 0.9 6.1 0.00 0.01 0.00 73 1010.3
20260505095904 57 171 0.9 6.1 0.00 0.01 0.00 73 1010.3
20260505095402 57 134 0.9 3.5 0.00 0.01 0.00 73 1010.3
20260505094902 57 174 0.9 5.2 0.00 0.01 0.00 73 1010.3
20260505094404 57 136 1.7 4.3 0.00 0.01 0.00 73 1010.4
20260505093902 57 219 0.9 6.1 0.00 0.01 0.00 73 1010.4
20260505093402 57 185 0.9 5.2 0.00 0.01 0.00 73 1010.3
20260505092907 57 161 0.9 3.5 0.00 0.01 0.00 72 1010.4
20260505092402 57 164 1.7 3.5 0.00 0.01 0.00 72 1010.4
20260505091902 57 154 1.7 4.3 0.00 0.01 0.00 72 1010.3
20260505091403 57 134 1.7 4.3 0.00 0.01 0.00 72 1010.3
20260505090956 57 148 1.7 6.1 0.00 0.01 0.00 72 1010.2
20260505090902 57 148 1.7 6.1 0.00 0.01 0.00 72 1010.2
20260505090403 57 148 1.7 4.3 0.00 0.01 0.00 73 1010.2
20260505085904 57 134 0.9 4.3 0.00 0.01 0.00 73 1010.0
20260505085403 56 102 0.9 1.7 0.00 0.01 0.00 73 1010.1
20260505084902 56 105 0.0 4.3 0.00 0.01 0.00 73 1010.0
20260505084402 56 117 0.0 0.9 0.00 0.01 0.00 73 1010.0
20260505084057 56 240 0.0 1.7 0.00 0.01 0.00 73 1009.9
20260505083902 56 240 0.0 1.7 0.00 0.01 0.00 73 1009.9
20260505083405 56 117 0.0 0.9 0.00 0.01 0.00 73 1010.0
20260505082906 56 52 0.0 0.0 0.00 0.01 0.00 73 1010.0
20260505082402 56 52 0.0 0.0 0.00 0.01 0.00 73 1010.1
20260505081902 56 154 0.0 1.7 0.00 0.01 0.00 73 1010.1
20260505081403 56 173 0.0 0.0 0.00 0.01 0.00 73 1010.1
20260505080902 57 169 0.0 1.7 0.00 0.01 0.00 72 1010.2
20260505080402 57 157 0.0 0.9 0.00 0.01 0.00 72 1010.2
20260505075907 57 111 0.0 2.6 0.00 0.01 0.00 72 1010.1
20260505075402 57 113 0.9 2.6 0.00 0.01 0.00 72 1010.1
20260505074902 57 91 0.9 2.6 0.00 0.01 0.00 71 1010.0
20260505074402 57 163 0.9 6.1 0.00 0.01 0.00 71 1010.1
20260505074133 58 118 0.9 3.5 0.00 0.01 0.00 71 1010.0
20260505073902 58 118 0.9 3.5 0.00 0.01 0.00 71 1010.0
20260505073403 58 108 0.9 2.6 0.00 0.01 0.00 70 1010.0
20260505072902 58 98 0.9 2.6 0.00 0.01 0.00 70 1009.9
20260505072405 58 104 0.9 1.7 0.00 0.01 0.00 70 1009.9
20260505071902 58 111 0.0 2.6 0.00 0.01 0.00 70 1009.8
20260505071721 58 126 0.0 1.7 0.00 0.01 0.00 70 1009.8
20260505071403 58 126 0.0 1.7 0.00 0.01 0.00 70 1009.8
20260505070903 58 101 0.0 1.7 0.00 0.01 0.00 70 1009.8
20260505070403 58 69 0.0 3.5 0.00 0.01 0.00 70 1009.8
20260505065905 58 92 0.0 1.7 0.00 0.01 0.00 70 1009.8
20260505065809 59 274 0.0 0.0 0.00 0.01 0.00 69 1009.9
20260505065403 59 274 0.0 0.0 0.00 0.01 0.00 69 1009.9
20260505064902 59 245 0.0 1.7 0.00 0.01 0.00 68 1009.9
20260505064403 59 91 0.0 1.7 0.00 0.01 0.00 68 1010.0
20260505064049 59 101 0.0 3.5 0.00 0.01 0.00 69 1010.0
20260505063903 59 101 0.0 3.5 0.00 0.01 0.00 69 1010.0
20260505063403 59 144 0.9 0.9 0.00 0.01 0.00 69 1010.0
20260505062905 59 160 0.9 2.6 0.00 0.01 0.00 69 1010.0
20260505062403 59 129 0.0 2.6 0.00 0.01 0.00 68 1010.0
20260505061903 59 159 0.0 1.7 0.00 0.01 0.00 67 1010.1
20260505061403 59 123 0.0 0.9 0.00 0.01 0.00 67 1010.0
20260505060903 60 162 0.0 1.7 0.00 0.01 0.00 66 1010.1
20260505060403 60 159 0.0 1.7 0.00 0.01 0.00 66 1010.1
20260505055906 60 180 0.0 0.9 0.00 0.01 0.00 66 1010.2
20260505055403 60 144 0.0 0.9 0.00 0.01 0.00 65 1010.3
20260505054903 61 114 0.9 2.6 0.00 0.01 0.00 65 1010.2
20260505054404 61 172 0.9 1.7 0.00 0.01 0.00 65 1010.2
20260505053904 61 137 0.9 4.3 0.00 0.01 0.00 65 1010.2
20260505053405 61 98 0.0 1.7 0.00 0.01 0.00 65 1010.1
20260505052903 61 190 0.0 0.9 0.00 0.01 0.00 64 1010.1
20260505052403 61 282 0.0 0.9 0.00 0.01 0.00 64 1010.2
20260505051903 62 298 0.0 1.7 0.00 0.01 0.00 63 1010.1
20260505051404 62 148 0.9 2.6 0.00 0.01 0.00 62 1010.2
20260505050903 62 144 0.9 2.6 0.00 0.01 0.00 62 1010.2
20260505050404 62 224 0.9 3.5 0.00 0.01 0.00 62 1010.3
20260505041403 63 150 1.7 7.0 0.00 0.01 0.00 60 1009.9
20260505040903 64 173 1.7 7.0 0.00 0.01 0.00 59 1009.9
20260505040403 64 123 1.7 4.3 0.00 0.01 0.00 59 1009.9
20260505035905 64 128 1.7 3.5 0.00 0.01 0.01 59 1009.9
20260505035403 64 174 1.7 4.3 0.00 0.01 0.01 59 1009.9
20260505034903 64 221 2.6 6.1 0.00 0.01 0.01 58 1009.9
20260505034403 64 189 2.6 6.1 0.00 0.01 0.01 58 1009.8
20260505033903 64 161 1.7 7.8 0.00 0.01 0.01 58 1009.8
20260505033403 64 212 1.7 5.2 0.00 0.01 0.01 58 1009.8
20260505032903 64 171 1.7 2.6 0.00 0.01 0.01 59 1009.8
20260505032403 64 153 2.6 7.0 0.00 0.01 0.01 57 1009.8
20260505031903 64 215 2.6 8.7 0.00 0.01 0.01 58 1009.8
20260505031404 64 187 2.6 7.8 0.00 0.01 0.01 58 1009.7
20260505030903 64 219 2.6 7.0 0.00 0.01 0.01 59 1009.8
20260505030404 64 140 2.6 5.2 0.00 0.01 0.01 59 1009.7
20260505025907 63 250 2.6 10.4 0.00 0.01 0.01 58 1009.8
20260505025403 63 178 2.6 5.2 0.00 0.01 0.01 59 1009.8
20260505024905 63 214 1.7 7.8 0.00 0.01 0.01 59 1009.8
20260505024403 63 221 1.7 7.0 0.00 0.01 0.01 59 1009.8
20260505023903 63 146 1.7 7.0 0.00 0.01 0.01 59 1009.6
20260505023403 63 186 0.9 4.3 0.00 0.01 0.01 58 1009.7
20260505022905 63 164 0.9 4.3 0.00 0.01 0.01 58 1009.7
20260505022442 63 184 1.7 2.6 0.00 0.01 0.01 58 1009.7
20260505022403 63 184 1.7 2.6 0.00 0.01 0.01 58 1009.7
20260505021904 63 183 1.7 5.2 0.01 0.01 0.01 58 1009.7
20260505021403 63 226 1.7 3.5 0.01 0.01 0.01 58 1009.9
20260505020904 63 248 0.9 3.5 0.01 0.01 0.01 58 1009.8
20260505020508 63 221 0.9 2.6 0.01 0.01 0.01 59 1009.9
20260505020403 63 221 0.9 2.6 0.01 0.01 0.01 59 1009.9
20260505015905 64 265 0.9 2.6 0.01 0.01 0.01 57 1009.8
20260505015403 64 178 0.9 4.3 0.01 0.01 0.01 58 1009.7
20260505014903 64 163 1.7 3.5 0.01 0.01 0.01 60 1009.6
20260505014403 64 221 1.7 7.0 0.01 0.01 0.01 58 1009.6
20260505013903 64 22 1.7 5.2 0.01 0.01 0.01 60 1009.6
20260505013405 64 228 3.5 6.1 0.01 0.01 0.01 60 1009.7
20260505012905 65 178 5.2 10.4 0.01 0.01 0.01 57 1009.7
20260505012403 65 225 4.3 12.2 0.01 0.01 0.01 56 1009.5
20260505011904 66 153 2.6 4.3 0.00 0.00 0.00 49 1009.4
20260505011403 67 223 2.6 4.3 0.00 0.00 0.00 47 1009.7
20260505010904 67 172 1.7 6.1 0.00 0.00 0.00 47 1009.5
20260505010403 67 183 1.7 3.5 0.00 0.00 0.00 46 1009.2
20260505005904 68 159 2.6 7.8 0.00 0.00 0.00 46 1009.1
20260505005403 68 165 2.6 4.3 0.00 0.00 0.00 45 1009.2
20260505004903 68 152 3.5 6.1 0.00 0.00 0.00 45 1009.0
20260505004403 68 154 3.5 7.8 0.00 0.00 0.00 45 1009.0
20260505003903 68 152 2.6 7.0 0.00 0.00 0.00 45 1008.9
20260505003436 68 140 2.6 7.0 0.00 0.00 0.00 44 1008.9
20260505003403 68 140 2.6 7.0 0.00 0.00 0.00 44 1008.9
20260505002907 69 188 2.6 6.1 0.00 0.00 0.00 44 1008.9
20260505002403 69 165 3.5 8.7 0.00 0.00 0.00 43 1008.8
20260505001903 69 165 3.5 7.8 0.00 0.00 0.00 43 1008.8
20260505001403 69 209 3.5 9.6 0.00 0.00 0.00 43 1008.9
20260505000903 70 188 3.5 10.4 0.00 0.00 0.00 42 1008.9
20260505000405 70 180 3.5 7.8 0.00 0.00 0.00 42 1009.0
20260504235903 70 161 3.5 7.8 0.00 0.00 0.00 41 1009.0
20260504235404 70 219 3.5 7.8 0.00 0.00 0.00 41 1008.9
20260504234903 71 182 3.5 10.4 0.00 0.00 0.00 40 1008.8
20260504234404 71 193 2.6 7.8 0.00 0.00 0.00 40 1008.8
20260504233904 72 158 2.6 7.0 0.00 0.00 0.00 40 1008.8
20260504233404 72 158 3.5 8.7 0.00 0.00 0.00 39 1008.8
20260504232904 73 182 3.5 7.8 0.00 0.00 0.00 38 1008.7
20260504232404 73 207 3.5 6.1 0.00 0.00 0.00 38 1008.7
20260504231904 73 262 3.5 11.3 0.00 0.00 0.00 38 1008.6
20260504231404 73 177 3.5 7.8 0.00 0.00 0.00 38 1008.6
20260504230904 73 165 4.3 7.8 0.00 0.00 0.00 39 1008.6
20260504230404 73 155 4.3 8.7 0.00 0.00 0.00 38 1008.5
20260504225904 73 189 3.5 9.6 0.00 0.00 0.00 38 1008.7
20260504225404 73 123 3.5 8.7 0.00 0.00 0.00 39 1008.7
20260504224904 73 177 4.3 7.0 0.00 0.00 0.00 38 1008.8
20260504224404 73 152 4.3 13.0 0.00 0.00 0.00 38 1008.8
20260504223904 74 212 3.5 7.8 0.00 0.00 0.00 39 1008.8
20260504223404 74 135 4.3 9.6 0.00 0.00 0.00 38 1008.8
20260504222904 74 169 3.5 9.6 0.00 0.00 0.00 39 1008.9
20260504222404 74 148 2.6 6.1 0.00 0.00 0.00 38 1008.8
20260504221904 73 191 3.5 7.0 0.00 0.00 0.00 37 1008.8
20260504221404 73 194 5.2 9.6 0.00 0.00 0.00 38 1008.8
20260504220904 73 191 5.2 10.4 0.00 0.00 0.00 38 1008.9
20260504220404 74 154 5.2 9.6 0.00 0.00 0.00 37 1008.9
20260504215905 73 168 5.2 11.3 0.00 0.00 0.00 37 1008.9
20260504215404 73 167 4.3 8.7 0.00 0.00 0.00 38 1009.0
20260504214904 72 188 4.3 10.4 0.00 0.00 0.00 39 1009.0
20260504214404 72 170 4.3 11.3 0.00 0.00 0.00 39 1009.0
20260504213904 73 174 4.3 10.4 0.00 0.00 0.00 38 1008.9
20260504213404 72 157 3.5 11.3 0.00 0.00 0.00 39 1008.9
20260504212904 72 190 3.5 7.8 0.00 0.00 0.00 40 1008.9
20260504212404 72 148 5.2 8.7 0.00 0.00 0.00 39 1009.0
20260504211904 72 143 6.1 12.2 0.00 0.00 0.00 38 1009.0
20260504211405 72 163 5.2 12.2 0.00 0.00 0.00 38 1009.0
20260504210904 73 218 7.0 10.4 0.00 0.00 0.00 37 1009.1
20260504210404 73 134 7.8 13.0 0.00 0.00 0.00 37 1009.0
20260504205904 74 196 7.0 14.8 0.00 0.00 0.00 37 1008.9
20260504205404 74 252 6.1 12.2 0.00 0.00 0.00 37 1009.1
20260504204904 74 213 7.0 10.4 0.00 0.00 0.00 39 1009.0
20260504204404 74 194 7.0 17.4 0.00 0.00 0.00 36 1009.0
20260504203904 74 150 7.0 13.0 0.00 0.00 0.00 38 1009.0
20260504203404 73 209 7.8 16.5 0.00 0.00 0.00 37 1008.9
20260504202905 74 239 7.8 15.6 0.00 0.00 0.00 38 1009.0
20260504202404 73 225 6.1 14.8 0.00 0.00 0.00 36 1009.1
20260504201904 73 90 6.1 13.9 0.00 0.00 0.00 36 1009.1
20260504201404 73 87 6.1 12.2 0.00 0.00 0.00 38 1009.1
20260504200904 74 213 5.2 13.9 0.00 0.00 0.00 36 1009.3
20260504200404 73 201 6.1 11.3 0.00 0.00 0.00 37 1009.4
20260504195904 73 150 6.1 14.8 0.00 0.00 0.00 39 1009.5
20260504195404 73 187 7.0 12.2 0.00 0.00 0.00 38 1009.6
20260504194904 73 244 7.8 16.5 0.00 0.00 0.00 37 1009.8
20260504194404 73 201 7.0 13.0 0.00 0.00 0.00 39 1009.9
20260504193904 73 200 6.1 13.9 0.00 0.00 0.00 37 1009.9
20260504193404 73 85 5.2 12.2 0.00 0.00 0.00 36 1009.9
20260504192914 73 144 5.2 12.2 0.00 0.00 0.00 38 1010.1
20260504192404 72 211 6.1 9.6 0.00 0.00 0.00 37 1010.1
20260504191904 72 181 6.1 9.6 0.00 0.00 0.00 37 1010.4
20260504191404 72 157 5.2 10.4 0.00 0.00 0.00 37 1010.4
20260504190904 72 137 6.1 10.4 0.00 0.00 0.00 39 1010.5
20260504190404 72 212 6.1 12.2 0.00 0.00 0.00 40 1010.6
20260504185907 72 241 6.1 9.6 0.00 0.00 0.00 38 1010.8
20260504185405 72 233 7.0 10.4 0.00 0.00 0.00 39 1010.9
20260504184904 72 194 7.0 15.6 0.00 0.00 0.00 37 1010.9
20260504184404 72 234 7.0 13.0 0.00 0.00 0.00 38 1011.0
20260504183904 72 219 7.8 10.4 0.00 0.00 0.00 40 1011.2
20260504183404 71 241 7.0 17.4 0.00 0.00 0.00 39 1011.1
20260504182906 72 245 5.2 16.5 0.00 0.00 0.00 37 1011.2
20260504182405 72 223 4.3 11.3 0.00 0.00 0.00 36 1011.3
20260504181904 71 261 6.1 7.0 0.00 0.00 0.00 38 1011.4
20260504181404 71 222 6.1 16.5 0.00 0.00 0.00 37 1011.4
20260504180904 71 186 4.3 11.3 0.00 0.00 0.00 38 1011.5
20260504180404 71 146 3.5 7.0 0.00 0.00 0.00 38 1011.5
20260504175907 70 144 4.3 7.8 0.00 0.00 0.00 38 1011.6
20260504175404 71 265 5.2 9.6 0.00 0.00 0.00 42 1011.5
20260504174904 71 184 7.0 12.2 0.00 0.00 0.00 41 1011.7
20260504174405 71 223 6.1 12.2 0.00 0.00 0.00 37 1011.8
20260504173904 71 200 5.2 11.3 0.00 0.00 0.00 38 1011.7
20260504173404 70 209 4.3 8.7 0.00 0.00 0.00 38 1011.7
20260504172905 70 218 5.2 13.9 0.00 0.00 0.00 40 1011.9
20260504172404 69 211 6.1 10.4 0.00 0.00 0.00 39 1011.9
20260504171405 69 252 5.2 9.6 0.00 0.00 0.00 37 1012.1
20260504170905 69 166 5.2 9.6 0.00 0.00 0.00 39 1012.1
20260504170404 69 226 5.2 10.4 0.00 0.00 0.00 40 1012.1
20260504160405 67 224 5.2 10.4 0.00 0.00 0.00 38 1013.0
20260504150905 65 221 4.3 8.7 0.00 0.00 0.00 40 1013.8
20260504150405 65 109 2.6 7.0 0.00 0.00 0.00 41 1013.8
20260504140908 61 282 4.3 7.8 0.00 0.00 0.00 46 1013.9
20260504140405 61 202 2.6 8.7 0.00 0.00 0.00 47 1014.0
20260504130505 55 149 2.6 6.1 0.00 0.00 0.00 52 1014.4
20260504130405 55 149 2.6 6.1 0.00 0.00 0.00 52 1014.4